This is the latest recevied weather packets stored in our database for station/object NA9VY-8. If no packets are shown the sender has not sent any weather packets the latest 10 day(s).
| Time | Temp. | Humidity | Pressure | Rain* | Wind** | Luminosity | Snow |
|---|---|---|---|---|---|---|---|
| 1777826184 | 15° C | 44% | 1024.2 hPa | 0 mm | - | 662 W/m² | - |
| 1777825882 | 15.56° C | 40% | 1024.2 hPa | 0 mm | - | 132 W/m² | - |
| 1777825578 | 15° C | 42% | 1024.3 hPa | 0 mm | - | 106 W/m² | - |
| 1777825277 | 14.44° C | 43% | 1024.5 hPa | 0 mm | - | 480 W/m² | - |
| 1777824973 | 14.44° C | 42% | 1024.6 hPa | 0 mm | - | 763 W/m² | - |
| 1777824669 | 14.44° C | 42% | 1024.6 hPa | 0 mm | - | 739 W/m² | - |
| 1777824366 | 15° C | 44% | 1025 hPa | 0 mm | - | 820 W/m² | - |
| 1777824061 | 15° C | 42% | 1025.2 hPa | 0 mm | - | 765 W/m² | - |
| 1777823758 | 14.44° C | 43% | 1025.2 hPa | 0 mm | - | 729 W/m² | - |
| 1777823455 | 15° C | 46% | 1025.4 hPa | 0 mm | - | 803 W/m² | - |
| 1777823153 | 14.44° C | 43% | 1025.3 hPa | 0 mm | - | 810 W/m² | - |
| 1777822850 | 15° C | 43% | 1025.5 hPa | 0 mm | - | 588 W/m² | - |
| 1777822548 | 15° C | 49% | 1025.6 hPa | 0 mm | - | 1051 W/m² | - |
| 1777822245 | 14.44° C | 48% | 1025.7 hPa | 0 mm | - | 860 W/m² | - |
| 1777821943 | 15° C | 48% | 1025.9 hPa | 0 mm | - | 641 W/m² | - |
| 1777821641 | 13.89° C | 47% | 1025.9 hPa | 0 mm | - | 773 W/m² | - |
| 1777821339 | 13.89° C | 47% | 1026 hPa | 0 mm | - | 738 W/m² | - |
| 1777821035 | 13.89° C | 47% | 1025.9 hPa | 0 mm | - | 580 W/m² | - |
| 1777820731 | 14.44° C | 49% | 1026.1 hPa | 0 mm | - | 159 W/m² | - |
| 1777820428 | 13.89° C | 48% | 1026.1 hPa | 0 mm | - | 625 W/m² | - |
| 1777820125 | 13.33° C | 49% | 1026.4 hPa | 0 mm | - | 559 W/m² | - |
| 1777819822 | 13.33° C | 50% | 1026.4 hPa | 0 mm | - | 555 W/m² | - |
| 1777819520 | 13.89° C | 50% | 1026.4 hPa | 0 mm | - | 607 W/m² | - |
| 1777819217 | 13.33° C | 54% | 1026.5 hPa | 0 mm | - | 586 W/m² | - |
| 1777818914 | 12.78° C | 48% | 1026.5 hPa | 0 mm | - | 601 W/m² | - |
* Rain latest hour (hover to see other rain measurements)
** Current wind speed in m/s (hover to see current wind gust speed)